Date_and_time,latitude,longitude,wind_speed,RelWindDirFrom,WindDirFrom,air_pressure,air_temperature,relative_humidity,Temp,platform_speed_wrt_ground,air_pressure_at_mean_sea_level,platform_orientation
2018-11-12 23:40,50.6304416666667,-96.9807683333333,5.3,7.7,256,1003.71,-10.4,61,1.02,0.0,1033.04,165.5
2018-11-12 23:50,50.6304416666667,-96.9807683333333,5.1,7.0,251,1003.70,-10.6,63,1.01,0.0,1033.06,165.5
2018-11-13 00:00,50.6304416666667,-96.9807683333333,5.3,7.6,250,1003.73,-10.8,63,1.01,0.0,1033.13,360.0
2018-11-13 00:00,50.6304416666667,-96.9807683333333,6.1,6.1,251,1003.74,-10.9,64,1.01,0.0,1033.15,38.0
2018-11-13 00:10,50.6304416666667,-96.98077,4.5,7.2,255,1003.69,-11.0,64,1.01,0.0,1033.10,38.0
2018-11-13 00:20,50.6304416666667,-96.98077,4.0,6.6,254,1003.68,-11.1,64,1.00,0.0,1033.09,38.0
2018-11-13 00:30,50.63044,-96.980785,4.1,6.2,254,1003.65,-11.1,65,1.01,0.0,1033.08,38.0
2018-11-13 00:40,50.6304433333333,-96.9807816666667,4.2,5.9,258,1003.62,-11.2,65,1.01,0.0,1033.06,38.0
2018-11-13 00:50,50.630445,-96.9807783333333,3.6,5.8,253,1003.58,-11.3,65,1.01,0.0,1033.05,38.0
2018-11-13 01:00,50.6304466666667,-96.98078,3.7,5.0,250,1003.57,-11.5,66,1.01,0.0,1033.06,291.5
2018-11-13 01:10,50.6304466666667,-96.9807766666667,3.5,4.7,247,1003.52,-11.6,67,1.01,0.0,1033.02,291.5
2018-11-13 01:20,50.6304616666667,-96.9807866666667,3.8,4.8,247,1003.47,-11.7,67,1.01,0.0,1032.98,291.5
2018-11-13 01:30,50.6304533333333,-96.98077,3.8,5.0,247,1003.38,-11.8,67,1.01,0.0,1032.91,291.5
2018-11-13 01:40,50.6304433333333,-96.9807666666667,4.1,5.4,254,1003.38,-11.8,66,1.01,0.0,1032.91,291.5
2018-11-13 01:50,50.6304433333333,-96.9807633333333,3.8,5.3,257,1003.29,-11.6,65,1.02,0.0,1032.81,291.5
2018-11-13 02:00,50.6304466666667,-96.9807683333333,3.4,4.7,272,1003.26,-11.5,65,1.02,0.0,1032.79,360.0
2018-11-13 02:10,50.6304433333333,-96.980765,3.7,5.0,279,1003.25,-11.5,65,1.03,0.0,1032.78,360.0
2018-11-13 02:20,50.63044,-96.9807633333333,3.5,4.6,273,1003.14,-11.5,65,1.03,0.0,1032.68,360.0
2018-11-13 02:30,50.6304433333333,-96.980755,3.5,5.0,259,1003.09,-11.5,65,1.02,0.0,1032.62,360.0
2018-11-13 02:40,50.6304483333333,-96.9807716666667,3.6,5.4,262,1003.06,-11.5,64,1.01,0.0,1032.60,360.0
2018-11-13 02:50,50.6304533333333,-96.980775,4.4,6.2,257,1003.05,-11.5,64,1.00,0.0,1032.59,360.0
2018-11-13 03:00,50.63045,-96.98077,3.5,5.5,262,1003.03,-11.6,65,0.99,0.0,1032.58,360.0
2018-11-13 03:10,50.6304483333333,-96.98077,4.0,6.5,261,1003.00,-11.7,66,0.98,0.0,1032.57,360.0
2018-11-13 03:20,50.6304483333333,-96.98077,4.0,5.6,271,1002.93,-11.8,67,0.98,0.0,1032.50,360.0
2018-11-13 03:30,50.6304483333333,-96.98077,4.0,6.2,268,1003.01,-11.9,68,0.98,0.0,1032.60,360.0
2018-11-13 03:40,50.6304483333333,-96.98077,4.1,6.2,266,1003.00,-11.9,70,0.99,0.0,1032.58,360.0
2018-11-13 03:50,50.6304483333333,-96.98077,4.8,7.3,260,1003.04,-11.9,71,1.00,0.0,1032.61,360.0
2018-11-13 04:00,50.6304483333333,-96.9807716666667,3.9,6.1,253,1002.99,-12.0,72,1.01,0.0,1032.57,90.0
2018-11-13 04:10,50.63045,-96.9807716666667,4.7,6.6,254,1003.00,-12.0,73,1.01,0.0,1032.58,90.0
2018-11-13 04:20,50.630445,-96.98076,4.7,6.7,261,1003.09,-12.0,74,1.01,0.0,1032.67,90.0
2018-11-13 04:30,50.63042,-96.9807616666667,4.7,6.4,258,1003.16,-11.9,74,1.02,0.0,1032.74,90.0
2018-11-13 04:40,50.630445,-96.9807733333333,4.6,6.4,258,1003.21,-11.9,75,1.02,0.0,1032.79,90.0
2018-11-13 04:50,50.6304433333333,-96.980775,4.5,6.8,257,1003.26,-11.9,75,1.02,0.0,1032.84,90.0
2018-11-13 05:00,50.630445,-96.98077,4.7,6.6,253,1003.14,-11.8,76,1.02,0.0,1032.73,360.0
2018-11-13 05:10,50.6304433333333,-96.9807683333333,4.5,5.9,259,1003.17,-11.9,77,1.02,0.0,1032.76,360.0
2018-11-13 05:20,50.630445,-96.9807683333333,4.7,7.5,263,1003.16,-11.9,77,1.01,0.0,1032.76,360.0
2018-11-13 05:30,50.630445,-96.9807683333333,4.8,6.5,276,1003.08,-11.9,78,1.01,0.0,1032.68,360.0
2018-11-13 05:40,50.630445,-96.9807666666667,3.8,5.8,276,1003.13,-11.8,78,1.00,0.0,1032.72,360.0
2018-11-13 05:50,50.630445,-96.9807666666667,3.9,5.8,276,1003.00,-11.8,77,0.99,0.0,1032.60,360.0
2018-11-13 06:00,50.6304583333333,-96.9807783333333,4.1,6.4,274,1003.08,-11.8,77,1.00,0.0,1032.68,291.5
2018-11-13 06:10,50.6304533333333,-96.9807733333333,3.6,5.7,280,1003.11,-11.8,76,1.01,0.0,1032.71,291.5
2018-11-13 06:20,50.6304516666667,-96.98077,4.5,6.5,278,1003.05,-11.6,75,1.01,0.0,1032.64,291.5
2018-11-13 06:30,50.6304516666667,-96.98077,4.2,5.9,283,1002.97,-11.4,74,1.01,0.0,1032.54,291.5
2018-11-13 06:40,50.63045,-96.9807716666667,4.0,5.9,282,1002.99,-11.3,74,1.02,0.0,1032.54,291.5
2018-11-13 06:50,50.6304766666667,-96.98078,3.3,5.2,277,1002.95,-11.2,74,1.02,0.0,1032.50,291.5
2018-11-13 07:00,50.630445,-96.9807683333333,3.5,4.9,269,1002.89,-11.3,74,1.02,0.0,1032.44,167.4
2018-11-13 07:10,50.6304383333333,-96.9807633333333,3.8,5.6,268,1002.84,-11.3,75,0.99,0.0,1032.39,167.4
2018-11-13 07:20,50.63044,-96.980765,3.5,4.8,261,1002.84,-11.2,75,0.98,0.0,1032.39,167.4
2018-11-13 07:30,50.630435,-96.9807666666667,3.6,5.3,260,1003.02,-11.2,74,0.97,0.0,1032.57,167.4
2018-11-13 07:40,50.6304366666667,-96.9807616666667,3.7,5.7,257,1002.94,-11.2,74,0.97,0.0,1032.49,167.4
2018-11-13 07:50,50.6304383333333,-96.9807633333333,4.0,5.7,262,1002.83,-11.2,72,0.97,0.0,1032.38,167.4
2018-11-13 08:00,50.6304383333333,-96.980765,3.6,6.4,269,1002.73,-11.3,72,0.96,0.0,1032.28,90.0
2018-11-13 08:10,50.6304383333333,-96.9807633333333,3.8,6.2,267,1002.72,-11.4,72,0.96,0.0,1032.26,90.0
2018-11-13 08:20,50.6304383333333,-96.9807633333333,3.9,5.6,258,1002.79,-11.5,72,0.96,0.0,1032.32,90.0
2018-11-13 08:30,50.6304383333333,-96.980765,4.2,6.5,262,1002.85,-11.6,73,0.96,0.0,1032.39,90.0
2018-11-13 08:40,50.6304416666667,-96.9807866666667,4.2,6.1,247,1002.84,-11.8,73,0.97,0.0,1032.39,90.0
2018-11-13 08:50,50.630445,-96.9807833333333,4.1,6.1,254,1002.86,-12.0,74,0.96,0.0,1032.42,90.0
2018-11-13 09:00,50.630445,-96.9807816666667,4.7,6.8,254,1002.86,-12.1,72,0.96,0.0,1032.42,360.0
2018-11-13 09:10,50.6304333333333,-96.9808283333333,4.4,6.5,258,1002.80,-12.2,71,0.95,0.0,1032.36,360.0
2018-11-13 09:20,50.630435,-96.9807883333333,4.9,7.8,267,1002.77,-12.2,70,0.94,0.0,1032.34,360.0
2018-11-13 09:30,50.63043,-96.9807366666667,4.9,7.2,268,1002.67,-12.3,69,0.94,0.0,1032.24,360.0
2018-11-13 09:40,50.6304383333333,-96.980765,4.2,6.2,271,1002.57,-12.5,68,0.93,0.0,1032.15,360.0
2018-11-13 09:50,50.6304366666667,-96.980765,4.1,5.8,282,1002.59,-12.7,68,0.92,0.0,1032.18,360.0
2018-11-13 10:00,50.6304366666667,-96.9807683333333,3.0,4.8,270,1002.61,-12.9,68,0.93,0.0,1032.22,142.0
2018-11-13 10:10,50.6304366666667,-96.98077,2.8,4.4,290,1002.50,-12.9,68,0.94,0.0,1032.12,142.0
2018-11-13 10:20,50.6304383333333,-96.98077,3.6,5.4,290,1002.57,-12.9,68,0.93,0.0,1032.20,142.0
2018-11-13 10:30,50.6304616666667,-96.9808016666667,2.9,4.9,276,1002.52,-13.0,68,0.92,0.0,1032.15,142.0
2018-11-13 10:40,50.6304383333333,-96.9807816666667,3.3,5.0,254,1002.49,-13.2,69,0.92,0.0,1032.15,142.0
2018-11-13 10:50,50.6304383333333,-96.9807716666667,3.5,5.0,269,1002.59,-13.4,70,0.92,0.0,1032.27,142.0
2018-11-13 11:00,50.6304166666667,-96.980785,4.0,5.9,268,1002.52,-13.5,68,0.90,0.0,1032.21,188.4
2018-11-13 11:10,50.6304216666667,-96.98078,4.1,5.6,277,1002.43,-13.4,68,0.88,0.0,1032.12,188.4
2018-11-13 11:20,50.630425,-96.9807783333333,3.6,5.4,264,1002.41,-13.6,69,0.86,0.0,1032.11,188.4
2018-11-13 11:30,50.630425,-96.9807766666667,4.2,6.0,244,1002.28,-13.9,70,0.86,0.0,1032.01,188.4
2018-11-13 11:40,50.630425,-96.9807766666667,3.6,5.1,257,1002.13,-14.1,70,0.84,0.0,1031.87,188.4
2018-11-13 11:50,50.6304366666667,-96.9807866666667,3.9,4.7,247,1002.08,-14.1,70,0.85,0.0,1031.84,188.4
2018-11-13 12:00,50.6304433333333,-96.9807766666667,4.8,5.6,242,1002.07,-14.3,70,0.86,0.0,1031.83,90.0
2018-11-13 12:10,50.630435,-96.9807816666667,4.4,5.3,249,1001.94,-14.3,69,0.84,0.0,1031.70,90.0
2018-11-13 12:20,50.6304366666667,-96.9807833333333,4.4,5.5,248,1001.88,-14.3,69,0.83,0.0,1031.64,90.0
2018-11-13 12:30,50.6304383333333,-96.9807833333333,4.7,5.9,252,1001.80,-14.2,69,0.83,0.0,1031.57,90.0
2018-11-13 12:40,50.63044,-96.9807833333333,4.4,5.3,257,1001.76,-14.2,69,0.82,0.0,1031.54,90.0
2018-11-13 12:50,50.6304383333333,-96.9807833333333,4.3,5.9,253,1001.64,-14.2,69,0.82,0.0,1031.43,90.0
2018-11-13 13:00,50.6304416666667,-96.9807766666667,4.2,5.5,249,1001.60,-14.3,70,0.86,0.0,1031.38,311.7
2018-11-13 13:10,50.63044,-96.9807733333333,4.7,5.9,256,1001.52,-14.4,70,0.89,0.0,1031.31,311.7
2018-11-13 13:20,50.6304416666667,-96.980775,5.0,6.4,254,1001.51,-14.3,71,0.89,0.0,1031.32,311.7
2018-11-13 13:30,50.6304516666667,-96.9807933333333,5.0,7.2,250,1001.50,-14.6,72,0.87,0.0,1031.33,311.7
2018-11-13 13:40,50.6304366666667,-96.98079,5.0,6.0,243,1001.56,-14.9,73,0.86,0.0,1031.42,311.7
2018-11-13 13:50,50.6304333333333,-96.9807733333333,5.3,6.7,245,1001.67,-15.0,73,0.87,0.0,1031.55,311.7
2018-11-13 14:00,50.6304333333333,-96.9807683333333,5.3,6.6,242,1001.78,-15.0,73,0.87,0.0,1031.66,31.1
2018-11-13 14:10,50.6304316666667,-96.98077,5.0,5.9,236,1001.71,-15.1,74,0.88,0.0,1031.59,31.1
2018-11-13 14:20,50.6304333333333,-96.9807933333333,4.6,5.8,237,1001.70,-14.9,73,0.86,0.0,1031.56,31.1
2018-11-13 14:30,50.6304283333333,-96.9807866666667,5.1,6.2,239,1001.79,-14.5,71,0.85,0.0,1031.63,31.1
2018-11-13 14:40,50.63043,-96.9807816666667,4.8,6.2,241,1001.79,-14.1,70,0.84,0.0,1031.61,31.1
2018-11-13 14:50,50.6304316666667,-96.9807816666667,4.6,6.2,250,1001.87,-13.8,69,0.85,0.0,1031.68,31.1
2018-11-13 15:00,50.630435,-96.9807833333333,4.4,6.6,251,1002.02,-13.6,69,0.87,0.0,1031.82,240.8
2018-11-13 15:10,50.6304333333333,-96.98078,4.1,5.7,255,1002.01,-13.4,68,0.87,0.0,1031.80,240.8
2018-11-13 15:20,50.6304333333333,-96.9807816666667,4.3,6.2,254,1002.04,-13.3,68,0.87,0.0,1031.84,240.8
2018-11-13 15:30,50.6304366666667,-96.98078,3.4,5.1,261,1002.10,-12.7,67,0.88,0.0,1031.90,240.8
2018-11-13 15:40,50.6304383333333,-96.98078,3.5,5.9,268,1001.96,-12.2,65,0.90,0.0,1031.72,240.8
2018-11-13 15:50,50.6304366666667,-96.9807783333333,3.7,4.8,238,1001.90,-12.0,65,0.92,0.0,1031.65,240.8
2018-11-13 16:00,50.6304383333333,-96.9807766666667,3.1,4.6,249,1001.70,-11.5,63,0.92,0.0,1031.42,90.0
2018-11-13 16:10,50.6304633333333,-96.9808116666667,1.9,3.5,257,1001.50,-11.0,62,0.90,0.0,1031.17,90.0
2018-11-13 16:20,50.6304516666667,-96.9807883333333,2.8,4.0,238,1001.61,-11.0,62,0.90,0.0,1031.27,90.0
2018-11-13 16:30,50.6304383333333,-96.98077,2.4,5.0,235,1001.79,-10.7,61,0.90,0.0,1031.41,90.0
2018-11-13 16:40,50.6304433333333,-96.9807716666667,3.7,6.4,254,1001.82,-10.5,59,0.90,0.0,1031.40,90.0
2018-11-13 16:50,50.6304416666667,-96.9807733333333,3.4,6.5,247,1001.91,-10.4,57,0.91,0.0,1031.48,90.0
2018-11-13 17:00,50.63044,-96.9807716666667,3.5,6.1,208,1001.76,-10.6,58,0.93,0.0,1031.33,345.5
2018-11-13 17:10,50.6304383333333,-96.9807716666667,2.6,4.0,180,1001.61,-10.8,58,0.93,0.0,1031.19,345.5
2018-11-13 17:20,50.6304383333333,-96.9807716666667,3.1,5.3,217,1001.82,-10.4,56,0.93,0.0,1031.34,345.5
2018-11-13 17:30,50.6304266666667,-96.98077,1.5,5.0,196,1001.84,-9.6,53,0.92,0.0,1031.29,345.5
2018-11-13 17:40,50.6304383333333,-96.9807766666667,4.5,6.9,210,1001.81,-10.2,55,0.92,0.0,1031.28,345.5
2018-11-13 17:50,50.630435,-96.9807733333333,4.6,5.9,233,1001.73,-10.3,56,0.93,0.0,1031.17,345.5
2018-11-13 18:00,50.63042,-96.9807483333333,5.2,7.0,215,1001.67,-10.7,61,0.95,0.0,1031.11,125.8
2018-11-13 18:10,50.63044,-96.980775,2.6,4.8,206,1001.55,-10.7,63,0.97,0.0,1030.98,125.8
2018-11-13 18:20,50.6304383333333,-96.9807733333333,2.0,4.0,205,1001.47,-10.6,61,0.99,0.0,1030.88,125.8
2018-11-13 18:30,50.6304416666667,-96.9807733333333,3.0,4.8,182,1001.33,-10.6,61,1.02,0.0,1030.72,125.8
2018-11-13 18:40,50.6304416666667,-96.9807733333333,1.8,4.4,146,1001.31,-10.4,59,1.04,0.0,1030.68,125.8
2018-11-13 18:50,50.6304416666667,-96.9807766666667,4.6,7.3,179,1001.23,-10.3,61,1.05,0.0,1030.61,125.8
2018-11-13 19:00,50.6304483333333,-96.980775,4.9,7.2,183,1001.06,-10.5,61,1.07,0.0,1030.46,38.0
2018-11-13 19:10,50.6304466666667,-96.9807733333333,3.9,6.6,185,1001.07,-10.4,61,1.08,0.0,1030.44,38.0
2018-11-13 19:20,50.630445,-96.9807716666667,3.9,7.1,173,1000.91,-10.3,61,1.10,0.0,1030.22,38.0
2018-11-13 19:30,50.63044,-96.9807616666667,4.7,7.4,175,1000.73,-10.2,61,1.11,0.0,1030.06,38.0
2018-11-13 19:40,50.6304416666667,-96.98077,5.2,7.5,187,1000.67,-10.2,62,1.12,0.0,1030.01,38.0
2018-11-13 19:50,50.630445,-96.980765,5.0,7.3,192,1000.65,-10.2,62,1.12,0.0,1030.01,38.0
2018-11-13 20:00,50.6304466666667,-96.98077,4.3,7.5,177,1000.64,-10.1,62,1.13,0.0,1030.00,48.3
2018-11-13 20:10,50.630445,-96.9807666666667,5.8,9.0,159,1000.37,-10.2,63,1.13,0.0,1029.71,48.3
2018-11-13 20:20,50.630445,-96.9807683333333,5.5,7.5,178,1000.26,-10.0,64,1.13,0.0,1029.59,48.3
2018-11-13 20:30,50.6304416666667,-96.98075,5.9,8.2,179,1000.22,-10.1,63,1.13,0.0,1029.54,48.3
2018-11-13 20:40,50.6304316666667,-96.98081,5.7,8.9,186,1000.19,-10.0,64,1.12,0.0,1029.50,48.3
2018-11-13 20:50,50.6304433333333,-96.9807733333333,5.5,8.6,186,1000.16,-9.9,64,1.11,0.0,1029.47,48.3
2018-11-13 21:00,50.6304466666667,-96.980765,6.3,9.1,177,1000.08,-9.9,65,1.10,0.0,1029.39,339.9
2018-11-13 21:10,50.6304483333333,-96.980765,5.4,9.0,184,1000.08,-9.9,64,1.08,0.0,1029.38,339.9
2018-11-13 21:20,50.6304483333333,-96.9807666666667,6.5,8.1,188,1000.01,-9.9,65,1.06,0.0,1029.31,339.9
2018-11-13 21:30,50.6304483333333,-96.9807666666667,6.5,9.4,192,999.97,-9.9,65,1.06,0.0,1029.27,339.9
2018-11-13 21:40,50.6304483333333,-96.9807666666667,6.9,8.8,184,999.98,-9.9,65,1.07,0.0,1029.28,339.9
2018-11-13 21:50,50.6304433333333,-96.98077,7.4,10.0,185,999.95,-10.0,65,1.06,0.0,1029.25,339.9
2018-11-13 22:00,50.630445,-96.9807633333333,7.5,9.2,188,999.95,-10.0,65,1.06,0.0,1029.25,167.4
2018-11-13 22:10,50.6304483333333,-96.9807633333333,7.3,9.5,186,999.87,-10.0,65,1.03,0.0,1029.17,167.4
2018-11-13 22:20,50.63045,-96.9807633333333,7.1,8.7,187,999.78,-10.1,65,1.04,0.0,1029.07,167.4
2018-11-13 22:30,50.6304666666667,-96.9807783333333,7.5,9.2,182,999.63,-10.1,65,1.04,0.0,1028.92,167.4
2018-11-13 22:40,50.63046,-96.980775,8.5,10.9,179,999.47,-10.1,65,1.00,0.0,1028.75,167.4
2018-11-13 22:50,50.6304566666667,-96.9807733333333,8.1,10.4,184,999.43,-10.2,65,1.00,0.0,1028.71,167.4
2018-11-13 23:00,50.630435,-96.980775,8.6,10.6,186,999.49,-10.2,65,0.99,0.0,1028.77,194.5
2018-11-13 23:10,50.6304366666667,-96.9807766666667,8.4,10.2,185,999.67,-10.2,65,0.96,0.0,1028.95,194.5
2018-11-13 23:20,50.6304383333333,-96.9807766666667,7.8,9.9,187,999.76,-10.2,64,0.94,0.0,1029.05,194.5
2018-11-13 23:30,50.63044,-96.9807783333333,8.3,10.7,185,999.70,-10.2,65,0.90,0.0,1028.99,194.5
2018-11-13 23:40,50.6304383333333,-96.9807766666667,9.6,11.3,179,999.57,-10.3,64,0.92,0.0,1028.86,194.5
2018-11-13 23:50,50.6304366666667,-96.9807833333333,9.6,11.5,179,999.52,-10.3,64,0.96,0.0,1028.82,194.5
